Regional Weather Roundup
Issued by NWS Newport/Morehead, NC

Current Version | Previous Version | Text Only | Print | Product List | Glossary On
Versions: 1 2 3 4 5 6 7 8 9 10 11 12 13 14 15 16 17 18 19 20 21 22 23 24 25 26 27 28 29 30 31 32 33 34 35 36 37 38 39 40 41 42 43 44 45 46 47 48 49 50
000 ASUS42 KMHX 210122 RWRMHX WEATHER ROUNDUP FOR EASTERN NORTH CAROLINA NATIONAL WEATHER SERVICE NEWPORT/MOREHEAD CITY NC 800 PM EST SAT DEC 20 2014 NOTE: "FAIR" INDICATES FEW OR NO CLOUDS BELOW 12,000 FEET WITH NO SIGNIFICANT WEATHER AND/OR OBSTRUCTIONS TO VISIBILITY NCZ015>017-031-032-045>047-102-103-210200- NORTH COAST CITY SKY/WX TMP DP RH WIND PRES REMARKS EDENTON N/A 36 32 86 CALM 30.30R ELIZABETH CITY CLOUDY 43 31 62 NE5 30.30R KITTY HAWK CLOUDY 42 34 73 N5 30.26F MANTEO CLOUDY 41 34 75 NE6 30.28S $$ NCZ045>047-081-094-103-104-210200- CENTRAL COAST CITY SKY/WX TMP DP RH WIND PRES REMARKS FRISCO CLOUDY 43 37 79 NE8 30.28R SWANQUARTER N/A 41 N/A N/A CALM 30.24S $$ NCZ095-097-098-100-101-210200- SOUTHERN COAST CITY SKY/WX TMP DP RH WIND PRES REMARKS BEAUFORT CLOUDY 40 37 89 N6 30.27F CEDAR ISLAND N/A 43 N/A N/A VRB12 30.30F JACKSONVILLE MOCLDY 39 37 92 N7 30.28S PINEY ISLAND CLOUDY 45 36 70 NE7 30.27S WILMINGTON CLOUDY 41 39 93 NE7 30.26S $$ NCZ011>013-027>030-043-044-078>080-089-090>093-098-210200- COASTAL PLAIN CITY SKY/WX TMP DP RH WIND PRES REMARKS AHOSKIE CLOUDY 35 32 87 CALM 30.30S CLINTON CLOUDY 40 39 96 CALM 30.29R ELIZABETHTOWN PTCLDY 37 37 99 CALM 30.28R FOG GOLDSBORO CLOUDY 40 39 98 CALM 30.28R GREENVILLE CLOUDY 39 36 87 CALM 30.30R HAVELOCK CLOUDY 41 37 86 N6 30.29S KENANSVILLE MOCLDY 38 37 95 CALM 30.29S KINSTON CLOUDY 39 37 93 CALM 30.30R NEW BERN CLOUDY 42 37 82 NE7 30.29S RICHLANDS CLEAR 36 32 87 CALM 30.29S ROCKY MOUNT CLOUDY 39 36 89 CALM 30.29S WASHINGTON CLOUDY 39 35 85 CALM 30.30R WHITEVILLE CLOUDY 41 38 90 NE3 30.26S $$ AMZ130-135-150-152-154-156-158-170-250-252-270-ANZ085-086-088-633-658-670-210200- MARINE OBSERVATIONS STATION/POSITION TIME TEMP WIND PRES WAVE SWELL AIR SEA DIR/SP/G HT/PER HT/PER (UTC) (F) (DEG/KT/KT) (MB) (FT/S) (FT/S) CHESAPEAKE LIGHT 0100 39 350/ 7/ 8 1026.4 64 E VA BEACH 0100 43 54 10/ 10/ 14 1024.7 2/ 5 2/ 5 DUCK 0100 42 46 10/ 8/ 11 1024.5 2 E DUCK 0100 46 N/A 2/ 6 10 NE DUCK 0100 52 N/A 3/ 6 OREGON INLET 0100 42 49 10/ 7/ 9 1024.9 13E OREGON INLT 0100 52 N/A 3/ 4 HATTERAS CG 0100 44 51 30/ 9/ 13 1025.2 DIAMOND BUOY 0100 48 1024.9 3/ 7 17 S OCRACOKE NOT AVBL CAPE LOOKOUT 0100 44 10/ 11/ 13 1024.5 BEAUFORT LAB 0100 42 52 20/ 6/ 8 1024.0 30 SE NEW RIVER 0100 49 61 40/ 14/ 17 1024.3 3/ 5 2/10 5 SE WRIGHTSVLE NOT AVBL 225 S CAPE HAT 0037 64 71 80/ 21/ 27 1020.3 4/ 5 2/10 41 SE CHARLESTON 0100 62 70 40/ 17/ 21 1020.8 4/ 6 2/11 $$

USA.gov is the U.S. government's official web portal to all federal, state and local government web resources and services.